TimeCDT,TemperatureF,Dew PointF,Humidity,Sea Level PressureIn,VisibilityMPH,Wind Direction,Wind SpeedMPH,Gust SpeedMPH,PrecipitationIn,Events,Conditions,WindDirDegrees,DateUTC
12:52 AM,79.0,73.9,84,30.02,10.0,South,15.0,-,N/A,,Scattered Clouds,170,2012-10-14 05:52:00
1:52 AM,79.0,73.9,84,30.01,10.0,South,16.1,-,N/A,,Partly Cloudy,170,2012-10-14 06:52:00
2:52 AM,79.0,73.9,84,29.99,10.0,South,17.3,-,N/A,,Partly Cloudy,180,2012-10-14 07:52:00
3:52 AM,79.0,73.0,82,29.99,10.0,South,17.3,-,N/A,,Scattered Clouds,180,2012-10-14 08:52:00
4:52 AM,79.0,72.0,79,29.99,10.0,South,11.5,-,N/A,,Clear,190,2012-10-14 09:52:00
5:52 AM,79.0,72.0,79,29.99,10.0,South,15.0,-,N/A,,Scattered Clouds,190,2012-10-14 10:52:00
6:52 AM,79.0,72.0,79,30.01,10.0,SSW,11.5,-,N/A,,Partly Cloudy,200,2012-10-14 11:52:00
7:52 AM,79.0,73.0,82,30.04,10.0,SSW,6.9,-,N/A,,Clear,210,2012-10-14 12:52:00
8:52 AM,81.0,72.0,74,30.07,10.0,SSW,10.4,-,N/A,,Clear,210,2012-10-14 13:52:00
9:52 AM,82.9,72.0,69,30.09,10.0,SSW,8.1,-,N/A,,Clear,200,2012-10-14 14:52:00
10:52 AM,82.9,69.1,63,30.11,10.0,South,8.1,-,N/A,,Clear,190,2012-10-14 15:52:00
11:52 AM,84.9,71.1,63,30.08,10.0,South,10.4,-,N/A,,Clear,170,2012-10-14 16:52:00
12:52 PM,84.9,72.0,65,30.06,10.0,SSE,11.5,-,N/A,,Clear,160,2012-10-14 17:52:00
1:52 PM,84.9,73.0,67,30.03,10.0,South,12.7,-,N/A,,Clear,180,2012-10-14 18:52:00
2:52 PM,84.2,73.4,70,30.01,10.0,South,15.0,-,N/A,,Clear,190,2012-10-14 19:52:00
3:52 PM,84.0,73.0,69,30.00,10.0,SSW,11.5,-,N/A,,Clear,210,2012-10-14 20:52:00
4:52 PM,82.9,73.0,72,29.99,10.0,SSW,15.0,-,N/A,,Clear,200,2012-10-14 21:52:00
5:52 PM,82.0,73.0,74,29.99,10.0,SSW,10.4,-,N/A,,Clear,200,2012-10-14 22:52:00
6:52 PM,80.1,73.9,81,29.98,10.0,South,8.1,-,N/A,,Clear,190,2012-10-14 23:52:00
7:52 PM,79.0,75.0,88,30.00,10.0,SSW,6.9,-,N/A,,Clear,200,2012-10-15 00:52:00
8:52 PM,79.0,75.0,88,30.02,10.0,SW,6.9,-,N/A,,Clear,220,2012-10-15 01:52:00
9:52 PM,78.1,75.0,90,30.02,10.0,SW,5.8,-,N/A,,Clear,220,2012-10-15 02:52:00
10:52 PM,78.1,75.0,90,30.04,10.0,SSW,4.6,-,N/A,,Overcast,210,2012-10-15 03:52:00
11:52 PM,79.0,73.9,84,30.03,10.0,SSW,5.8,-,N/A,,Mostly Cloudy,210,2012-10-15 04:52:00